[[{"header":{"parameterUnit":"m.s-1","parameterCategory":1,"la1":30.2991,"la2":30.254,"lo1":-89.0895,"lo2":-89.0444,"dy":0.0017,"dx":0.0017,"nx":28,"ny":28,"refTime":"2025-07-13T21:00:00:Z","depth":0,"parameterNumber":2,"parameterNumberName":"U-component_of_WINDS"},"data":[0,0,0,0,0,0,0,0,0,0,0,0,0,0,0,0,0,0,0,0,0,0,0,0,0,0,0,0,0,0,0,0,0,0,0,0,0,0,0,0,0,0,0,0,0,0,0,0,0,0,0,0,0,0,0,0,0,0,-0.1304,-0.1303,0,-0.1231,-0.123,-0.123,-0.1188,-0.1188,-0.1188,-0.1188,-0.1111,-0.1109,-0.1107,0,0,0,0,0,0,0,0,0,0,0,0,0,-0.1406,-0.1405,-0.1304,-0.1303,-0.1302,-0.1231,-0.123,-0.1229,-0.1188,-0.1188,-0.1188,-0.1188,-0.1112,-0.1109,-0.1107,0,0,0,0,0,0,0,0,0,0,0,0,0,-0.1351,-0.1404,-0.1304,-0.1273,-0.127,-0.1232,-0.123,-0.1229,-0.1188,-0.1188,-0.1188,-0.1188,-0.1112,-0.111,-0.1107,-0.1093,0,0,-0.1098,-0.1097,0,0,0,0,0,0,0,0,-0.1354,-0.1347,-0.1279,-0.1275,-0.1271,-0.1219,-0.1238,-0.1183,-0.1188,-0.1219,-0.1188,-0.1187,-0.1147,-0.1141,-0.1128,-0.109,-0.1086,-0.1098,-0.1096,-0.1095,-0.1094,0,0,0,0,0,0,0,-0.1358,-0.135,-0.1275,-0.1278,-0.1273,-0.1263,-0.1254,-0.1228,-0.1185,-0.1216,-0.1213,-0.1205,-0.1145,-0.1131,-0.1126,-0.1085,-0.1098,-0.1095,-0.1093,-0.1092,-0.1032,-0.1033,0,0,0,0,0,0,-0.1367,-0.1353,-0.1278,-0.1273,-0.1313,-0.1261,-0.1252,-0.1236,-0.1185,-0.1177,-0.1206,-0.1204,-0.1136,-0.1129,-0.1123,-0.1104,-0.1095,-0.1092,-0.109,-0.1032,-0.1032,-0.1033,0,0,0,0,0,0,-0.1369,-0.136,-0.128,-0.1312,-0.1301,-0.1259,-0.1242,-0.1234,-0.122,-0.1177,-0.1169,-0.1199,-0.1135,-0.1127,-0.1101,-0.11,-0.1091,-0.1088,-0.1032,-0.1032,-0.1033,-0.1065,0,0,0,0,0,0,-0.1372,-0.1361,-0.1356,-0.1312,-0.13,-0.126,-0.1242,-0.1233,-0.1216,-0.1213,-0.1169,-0.1161,-0.1134,-0.1106,-0.1098,-0.1096,-0.1086,-0.1032,-0.1032,-0.1032,-0.1064,-0.1066,-0.1069,0,0,0,0,0,-0.1376,-0.1368,-0.1356,-0.1347,-0.1292,-0.126,-0.1253,-0.1223,-0.1216,-0.121,-0.1182,-0.1163,-0.1102,-0.1103,-0.1095,-0.1092,-0.1032,-0.1032,-0.1032,-0.1063,-0.1066,-0.1069,0,0,0,0,0,0,-0.1411,-0.1361,-0.1348,-0.1325,-0.1298,-0.1254,-0.1245,-0.1227,-0.12,-0.1198,-0.1161,-0.1152,-0.113,-0.1108,-0.1111,-0.1076,-0.1065,-0.1063,-0.1091,-0.1093,-0.1096,-0.1101,-0.1083,0,0,0,0,0,-0.1417,-0.1395,-0.1353,-0.1337,-0.1324,-0.1287,-0.1272,-0.1252,-0.1221,-0.1209,-0.1179,-0.115,-0.1124,-0.1108,-0.1081,-0.1061,-0.1051,-0.1055,-0.1057,-0.1059,-0.1058,-0.1046,-0.1047,-0.1034,-0.1034,-0.1034,0,0,-0.1427,-0.1397,-0.1386,-0.1343,-0.1319,-0.1298,-0.1277,-0.1255,-0.1239,-0.1205,-0.1179,-0.1157,-0.1121,-0.1098,-0.1087,-0.108,-0.106,-0.106,-0.1062,-0.1059,-0.1047,-0.1048,-0.1049,-0.1034,-0.1034,-0.1034,0,0,-0.1435,-0.141,-0.1394,-0.1371,-0.1336,-0.1312,-0.1308,-0.1267,-0.1251,-0.1225,-0.1199,-0.1179,-0.1135,-0.1111,-0.1093,-0.1094,-0.1075,-0.1086,-0.1098,-0.1087,-0.1088,-0.1088,-0.1088,-0.1089,-0.1086,-0.1086,-0.1086,0,-0.1452,-0.1419,-0.1388,-0.1368,-0.135,-0.132,-0.1304,-0.1282,-0.124,-0.1228,-0.1221,-0.1167,-0.1141,-0.1112,-0.1112,-0.1099,-0.1093,-0.1091,-0.109,-0.1091,-0.1091,-0.109,-0.109,-0.1087,-0.1087,-0.1087,-0.1087,0,-0.1442,-0.1419,-0.1411,-0.1372,-0.1353,-0.1335,-0.1301,-0.1286,-0.1267,-0.1244,-0.1217,-0.1186,-0.1153,-0.1145,-0.1126,-0.1113,-0.111,-0.1097,-0.1085,-0.1094,-0.1093,-0.1093,-0.109,-0.1089,-0.1089,-0.1088,0,0,-0.1468,-0.1413,-0.1411,-0.1393,-0.1352,-0.1334,-0.1315,-0.1283,-0.1271,-0.1243,-0.1225,-0.119,-0.1178,-0.1158,-0.1137,-0.1127,-0.1129,-0.1115,-0.1114,-0.1118,-0.1113,-0.1122,-0.1123,-0.1117,-0.1117,-0.1117,-0.1116,0,-0.1469,-0.1434,-0.1406,-0.1381,-0.136,-0.1331,-0.1314,-0.1287,-0.1265,-0.1244,-0.1219,-0.1195,-0.1181,-0.1169,-0.1158,-0.1131,-0.1127,-0.1131,-0.11,-0.1099,-0.1108,-0.1122,-0.1131,-0.1132,-0.1115,-0.1115,-0.1115,0,-0.1466,-0.144,-0.1413,-0.1375,-0.1365,-0.135,-0.132,-0.13,-0.1269,-0.1254,-0.1232,-0.121,-0.1188,-0.1179,-0.1148,-0.1152,-0.1137,-0.1122,-0.1122,-0.1117,-0.1107,-0.1117,-0.1132,-0.1132,-0.1114,-0.1114,-0.1114,0,-0.1487,-0.1446,-0.1424,-0.141,-0.1365,-0.1356,-0.1336,-0.1305,-0.1289,-0.1262,-0.1251,-0.1222,-0.1206,-0.1184,-0.1155,-0.1151,-0.1127,-0.1115,-0.1113,-0.1114,-0.1108,-0.1109,-0.112,-0.1101,-0.1101,-0.1101,-0.1101,0,-0.1491,-0.1475,-0.1433,-0.142,-0.1401,-0.137,-0.1353,-0.1331,-0.1304,-0.1286,-0.126,-0.1243,-0.1206,-0.1185,-0.1162,-0.114,-0.1133,-0.1119,-0.1113,-0.1121,-0.1123,-0.1111,-0.1109,-0.1101,-0.1101,-0.1101,-0.1101,0,-0.1511,-0.1483,-0.1457,-0.1418,-0.1407,-0.1396,-0.1361,-0.1347,-0.1325,-0.1302,-0.1295,-0.1258,-0.1232,-0.1202,-0.1165,-0.115,-0.1129,-0.1121,-0.114,-0.1136,-0.1136,-0.1136,-0.1139,-0.1138,-0.112,-0.112,-0.112,0,-0.1515,-0.1503,-0.1462,-0.1449,-0.1431,-0.1409,-0.1392,-0.1361,-0.1345,-0.1309,-0.1299,-0.1271,-0.1247,-0.1207,-0.1177,-0.1149,-0.1139,-0.1142,-0.1134,-0.1143,-0.1138,-0.1139,-0.1138,-0.1144,-0.1144,-0.1144,-0.1145,0,-0.1525,-0.1512,-0.1489,-0.1461,-0.1442,-0.1419,-0.1394,-0.1384,-0.1349,-0.1331,-0.1305,-0.1286,-0.125,-0.1222,-0.1191,-0.1171,-0.1152,-0.1148,-0.1146,-0.1153,-0.1164,-0.1158,-0.1145,-0.1147,-0.1147,-0.1147,-0.1147,-0.1147,-0.1537,-0.1524,-0.1494,-0.147,-0.1448,-0.1426,-0.1411,-0.1387,-0.1365,-0.1333,-0.1316,-0.129,-0.126,-0.1216,-0.1197,-0.1176,-0.1169,-0.1166,-0.1165,-0.1165,-0.1167,-0.1169,-0.117,-0.117,-0.117,-0.117,-0.117,0,-0.1545,-0.1525,-0.1502,-0.1469,-0.145,-0.1435,-0.1408,-0.1392,-0.137,-0.1344,-0.1321,-0.1291,-0.1265,-0.1233,-0.1205,-0.1194,-0.1185,-0.1187,-0.1187,-0.1183,-0.1175,-0.1179,-0.1196,-0.1196,-0.1196,-0.1196,-0.1196,-0.1196,-0.1547,-0.1525,-0.1508,-0.1476,-0.1456,-0.143,-0.1416,-0.1395,-0.1374,-0.1342,-0.132,-0.1301,-0.1272,-0.1242,-0.1217,-0.1209,-0.1199,-0.1204,-0.1193,-0.1186,-0.1184,-0.1181,-0.1185,-0.1203,-0.1203,-0.1203,-0.1203,-0.1203]},{"header":{"parameterUnit":"m.s-1","parameterCategory":1,"la1":30.2991,"la2":30.254,"lo1":-89.0895,"lo2":-89.0444,"dy":0.0017,"dx":0.0017,"nx":28,"ny":28,"refTime":"2025-07-13T21:00:00:Z","depth":0,"parameterNumber":3,"parameterNumberName":"V-component_of_WINDS"},"data":[0,0,0,0,0,0,0,0,0,0,0,0,0,0,0,0,0,0,0,0,0,0,0,0,0,0,0,0,0,0,0,0,0,0,0,0,0,0,0,0,0,0,0,0,0,0,0,0,0,0,0,0,0,0,0,0,0,0,2.4425,2.4425,0,2.4411,2.4411,2.441,2.444,2.4441,2.4442,2.4443,2.4425,2.4423,2.4422,0,0,0,0,0,0,0,0,0,0,0,0,0,2.4476,2.4475,2.4425,2.4425,2.4425,2.4411,2.4411,2.441,2.444,2.4441,2.4442,2.4443,2.4425,2.4423,2.4422,0,0,0,0,0,0,0,0,0,0,0,0,0,2.4457,2.4474,2.4425,2.4438,2.4439,2.4411,2.4411,2.441,2.4439,2.4441,2.4442,2.4444,2.4426,2.4424,2.4421,2.4379,0,0,2.4415,2.4414,0,0,0,0,0,0,0,0,2.4458,2.4455,2.4436,2.4437,2.4438,2.4429,2.4422,2.44,2.4439,2.4439,2.4443,2.4444,2.4425,2.4423,2.4417,2.4378,2.4378,2.4415,2.4414,2.4413,2.4412,0,0,0,0,0,0,0,2.4459,2.4455,2.4419,2.4436,2.4437,2.4443,2.4442,2.4418,2.4424,2.4439,2.4441,2.4439,2.4425,2.4419,2.4416,2.4377,2.4415,2.4413,2.4412,2.4411,2.4303,2.4302,0,0,0,0,0,0,2.4459,2.4456,2.442,2.4419,2.4452,2.4441,2.444,2.443,2.4424,2.4425,2.4438,2.4441,2.4421,2.4419,2.4416,2.4365,2.4413,2.4411,2.441,2.4305,2.4303,2.4301,0,0,0,0,0,0,2.446,2.4456,2.4421,2.4438,2.4434,2.4439,2.4428,2.4429,2.4422,2.4423,2.4424,2.443,2.4422,2.4419,2.4388,2.4365,2.441,2.4408,2.4307,2.4304,2.4302,2.4265,0,0,0,0,0,0,2.4461,2.4456,2.444,2.4438,2.4433,2.4394,2.4426,2.4428,2.4419,2.4422,2.4416,2.4417,2.4423,2.4391,2.4386,2.4363,2.4406,2.4309,2.4306,2.4303,2.4268,2.4261,2.4256,0,0,0,0,0,2.4463,2.443,2.444,2.4435,2.4414,2.4393,2.439,2.4399,2.4417,2.4401,2.4402,2.4417,2.4369,2.4388,2.4382,2.4358,2.431,2.4307,2.4303,2.4271,2.4263,2.4256,0,0,0,0,0,0,2.4428,2.443,2.444,2.4406,2.4399,2.4398,2.4378,2.439,2.4378,2.4381,2.4392,2.4391,2.4358,2.4355,2.4376,2.4317,2.4342,2.4338,2.432,2.4312,2.4306,2.4307,2.4405,0,0,0,0,0,2.4417,2.44,2.4402,2.4371,2.4367,2.4373,2.4364,2.4372,2.4365,2.4362,2.436,2.4352,2.4335,2.4324,2.4308,2.4268,2.4267,2.4249,2.4243,2.4238,2.4233,2.4211,2.4203,2.4289,2.4289,2.4289,0,0,2.4393,2.4391,2.438,2.4364,2.436,2.4341,2.437,2.4349,2.4335,2.4358,2.4329,2.4328,2.432,2.4284,2.4268,2.4281,2.4209,2.4233,2.4229,2.4227,2.4206,2.4198,2.4191,2.4287,2.4287,2.4288,0,0,2.4338,2.4336,2.431,2.4305,2.4299,2.4303,2.4297,2.4294,2.4294,2.4266,2.4282,2.4265,2.4236,2.423,2.4222,2.4166,2.4179,2.4161,2.4128,2.4106,2.4099,2.4093,2.4072,2.4064,2.4156,2.4156,2.4156,0,2.4308,2.4282,2.4295,2.4272,2.4265,2.4286,2.4259,2.4253,2.4242,2.4235,2.425,2.4214,2.421,2.4173,2.4159,2.4153,2.4145,2.4161,2.4099,2.4093,2.4088,2.4068,2.406,2.4154,2.4154,2.4154,2.4154,0,2.4245,2.4226,2.4206,2.4195,2.4185,2.416,2.4168,2.4156,2.4165,2.4168,2.4138,2.4134,2.4118,2.411,2.4118,2.4074,2.4082,2.4098,2.4123,2.4077,2.4059,2.4051,2.415,2.4151,2.4152,2.4153,0,0,2.4168,2.4165,2.4157,2.4152,2.4147,2.4132,2.4108,2.4094,2.4083,2.4074,2.4054,2.4029,2.4044,2.4035,2.4043,2.4024,2.3979,2.4043,2.4043,2.403,2.3928,2.3916,2.3907,2.3988,2.3987,2.3985,2.3929,0,2.4113,2.4073,2.4084,2.4043,2.4026,2.4046,2.4025,2.4019,2.4021,2.4005,2.4007,2.3989,2.401,2.4005,2.3988,2.3988,2.3958,2.3992,2.3968,2.3967,2.3968,2.3897,2.3884,2.383,2.3922,2.3921,2.392,0,2.4044,2.4034,2.3992,2.399,2.3983,2.3964,2.3951,2.3937,2.393,2.3932,2.3923,2.3935,2.391,2.3937,2.3903,2.3925,2.3916,2.3915,2.3913,2.391,2.3939,2.3891,2.3814,2.3805,2.3909,2.3909,2.391,0,2.3991,2.3966,2.3938,2.3934,2.393,2.3916,2.3914,2.3909,2.39,2.3888,2.3882,2.3868,2.3859,2.3848,2.3854,2.3874,2.3818,2.3846,2.3819,2.3818,2.3805,2.3806,2.3724,2.3801,2.3801,2.3801,2.3801,0,2.3928,2.3901,2.3914,2.3896,2.3867,2.3879,2.3849,2.3849,2.3845,2.3827,2.3843,2.3826,2.3837,2.382,2.3825,2.3795,2.3792,2.3792,2.3794,2.379,2.379,2.3783,2.3787,2.3799,2.38,2.38,2.38,0,2.3863,2.387,2.3841,2.384,2.384,2.3818,2.3817,2.38,2.3804,2.3781,2.3776,2.3781,2.3762,2.3768,2.3747,2.3751,2.3713,2.3719,2.3715,2.3716,2.3688,2.3691,2.3599,2.3587,2.3672,2.3671,2.3671,0,2.3822,2.3802,2.38,2.379,2.3786,2.377,2.376,2.3772,2.3761,2.3752,2.3736,2.3719,2.3706,2.3674,2.3675,2.3659,2.3665,2.3634,2.3663,2.366,2.3663,2.3664,2.3662,2.3628,2.3627,2.3626,2.3625,0,2.3748,2.3753,2.3739,2.3727,2.3716,2.3706,2.3698,2.3688,2.3699,2.3686,2.3668,2.3657,2.3637,2.3619,2.3605,2.3602,2.3614,2.3617,2.3609,2.3605,2.3603,2.3603,2.3698,2.3618,2.3619,2.3619,2.362,2.362,2.3693,2.3676,2.3672,2.3656,2.3652,2.3644,2.3628,2.363,2.3615,2.36,2.3607,2.3585,2.3579,2.3561,2.3556,2.3539,2.355,2.354,2.3537,2.3534,2.353,2.3606,2.3536,2.3536,2.3536,2.3537,2.3537,0,2.3619,2.3618,2.3603,2.3592,2.3579,2.3595,2.3586,2.3574,2.3555,2.3549,2.3536,2.3514,2.3497,2.3497,2.3481,2.3467,2.3472,2.3462,2.3463,2.3462,2.3521,2.3528,2.3458,2.3458,2.3458,2.3458,2.3458,2.3458,2.3579,2.3552,2.3556,2.3525,2.3524,2.3504,2.3498,2.349,2.3485,2.346,2.3447,2.3447,2.3443,2.3427,2.3412,2.3412,2.3405,2.3392,2.3395,2.345,2.3457,2.3465,2.3472,2.3391,2.3391,2.3337,2.3336,2.3336]}]]